Flag for Albania Weather past 2 weeks in Durrës, Albania

Now
66 °F

Partly sunny.


Feels Like: 66 °F
Forecast: 59 / 68 °F
Wind: No wind

Location: Tirana Airport


UV Index: 3 (Moderate)

Visibility: N/A


Pressure: 29.86 "Hg

Humidity: 73%

Dew point: 57 °F

Location of DurrësLocation

Historic Weather in Durrës

°F

Durrës temperature yesterday

Maximum temperature yesterday: 72 °F (at 12:50 PM)
Minimum temperature yesterday: 55 °F (at 12:20 AM)
Average temperature yesterday: 63 °F

Past Weeks' High & Low Weather Summary

 TemperatureHumidityPressure
High72 °F (Apr 8, 1:20 PM)94% (Apr 9, 9:20 PM)30.09 "Hg (Apr 9, 9:20 PM)
Low39 °F (Apr 12, 4:20 AM)26% (Apr 10, 3:20 PM)29.65 "Hg (Apr 16, 4:50 AM)
Average55 °F74%29.90 "Hg
* Reported Apr 8 9:20 AM — Apr 23 9:20 AM, Durrës, Weather by CustomWeather, © 2014

Note: Actual official high and low records may vary slightly from our data, if they occured in-between our weather recording intervals... More about our weather records

Advertising

Historic Weather Conditions — Data for Previous 24 hours

 ConditionsComfort  
Time TempWeatherWind HumidityBarometerVisibility
9:20 AM
Apr 23
64 °FPartly sunny.No wind83%29.86 "HgN/A
8:50 AM63 °FPartly sunny.No wind83%29.89 "HgN/A
8:20 AM63 °FPartly sunny.2 mph88%29.86 "HgN/A
7:50 AM59 °FPartly sunny.2 mph94%29.86 "Hg5 mi
7:20 AM59 °FPartly sunny.No wind94%29.89 "Hg5 mi
6:50 AM59 °FPartly sunny.No wind88%29.89 "Hg6 mi
6:20 AM59 °FPassing clouds.3 mph94%29.92 "Hg5 mi
5:50 AM59 °FPassing clouds.2 mph94%29.92 "Hg5 mi
5:20 AM59 °FPassing clouds.6 mph88%29.92 "Hg5 mi
4:50 AM59 °FPassing clouds.5 mph88%29.92 "Hg4 mi
4:20 AM57 °FPassing clouds.No wind94%29.92 "Hg5 mi
3:50 AM59 °FPassing clouds.2 mph94%29.92 "Hg5 mi
3:20 AM59 °FPassing clouds.2 mph88%29.92 "HgN/A
2:50 AM57 °FPassing clouds.No wind94%29.92 "HgN/A
2:20 AM59 °FPassing clouds.No wind88%29.92 "HgN/A
1:50 AM57 °FPassing clouds.No wind94%29.92 "HgN/A
1:20 AM59 °FPassing clouds.No wind94%29.95 "HgN/A
12:50 AM59 °FPassing clouds.3 mph88%29.95 "HgN/A
12:20 AM59 °FPassing clouds.2 mph94%29.95 "HgN/A
11:50 PM
Apr 22
59 °FPassing clouds.No wind88%29.95 "HgN/A
11:20 PM59 °FPassing clouds.2 mph94%29.95 "HgN/A
10:50 PM59 °FPassing clouds.No wind88%29.95 "HgN/A
10:20 PM61 °FPassing clouds.2 mph83%29.98 "HgN/A
9:50 PM61 °FPassing clouds.No wind88%29.98 "HgN/A
9:20 PM61 °FPassing clouds.No wind83%29.98 "HgN/A
8:50 PM61 °FPassing clouds.3 mph83%29.98 "HgN/A
8:20 PM63 °FPartly sunny.3 mph77%29.95 "HgN/A
7:50 PM63 °FPartly sunny.3 mph77%29.95 "HgN/A
7:20 PM64 °FPassing clouds.3 mph73%29.95 "HgN/A
6:50 PM66 °FSunny.6 mph73%29.95 "Hg10 mi
6:20 PM66 °FPartly sunny.8 mph73%29.95 "HgN/A
5:50 PM70 °FPartly sunny.8 mph60%29.95 "HgN/A
5:20 PM70 °FPartly sunny.9 mph60%29.95 "HgN/A
4:50 PM70 °FPartly sunny.8 mph60%29.98 "HgN/A
4:20 PM72 °FPartly sunny.9 mph57%29.95 "HgN/A
3:50 PM70 °FPartly sunny.10 mph60%29.95 "HgN/A
3:20 PM72 °FPartly sunny.10 mph61%29.95 "HgN/A
2:50 PM72 °FPartly sunny.10 mph65%29.98 "HgN/A
2:20 PM72 °FScattered clouds.10 mph61%29.98 "HgN/A
1:50 PM72 °FScattered clouds.8 mph61%29.98 "HgN/A
1:20 PM70 °FPartly sunny.8 mph64%29.98 "HgN/A
12:50 PM72 °FPartly sunny.7 mph61%29.98 "HgN/A
12:20 PM70 °FPartly sunny.7 mph60%29.98 "HgN/A
11:50 AM68 °FScattered clouds.7 mph64%29.98 "HgN/A
11:20 AM70 °FScattered clouds.3 mph69%29.98 "HgN/A
10:50 AM70 °FScattered clouds.5 mph64%29.95 "HgN/A
10:20 AM70 °FScattered clouds.5 mph64%29.95 "HgN/A
Weather by CustomWeather, © 2014

See weather overview